Weather observations for the past three days for
Alexander City, Thomas C Russell Field Airport
Imperial (Metric)
Date Time (cdt) Wind (mph) Vis. (mi.) Weather Sky Cond. Temperature (ºF) Relative Humidity Wind Chill (°F) Heat Index (°F) Pressure Precipitation (in)
Air Dwpt 6 hour altimeter (in) sea level (mb) 1 hr 3 hr 6 hr
Max. Min.
12 21:35 Calm 10.00 Fair CLR 73.8 73.4 99% 29.94 0.0
12 21:15 Calm 10.00 Partly Cloudy SCT065 73.6 73.4 99% 29.94 0.0
12 20:55 Calm 10.00 Partly Cloudy SCT065 74.3 73.2 96% 29.94 0.0
12 20:35 Calm 10.00 Fair CLR 75.6 72.7 91% 75 29.94 0.0
12 20:15 Calm 10.00 Partly Cloudy SCT060 77.2 70.9 81% 79 29.94 0.0
12 19:55 Calm 10.00 Mostly Cloudy BKN060 78.6 70 75% 81 29.94 0.0
12 19:35 Calm 10.00 Partly Cloudy SCT060 79 70.7 76% 82 29.93 0.0
12 19:15 Calm 10.00 Fair CLR 82.6 66.2 58% 85 29.93 0.0
12 18:55 Calm 10.00 Fair CLR 83.3 64.8 87.1 82.8 54% 85 29.93 0.0
12 18:35 Calm 10.00 Fair CLR 84 64.9 53% 86 29.93 0.0
12 18:15 Calm 10.00 Fair CLR 84.2 62.4 48% 85 29.93 0.0
12 17:55 Calm 10.00 Fair CLR 85.6 60.6 43% 86 29.93 0.0
12 17:35 Calm 10.00 Fair CLR 85.3 60.1 43% 85 29.92 0.0
12 17:15 Calm 10.00 Fair CLR 86.4 61.2 43% 87 29.92 0.0
12 16:55 NE 5 10.00 Partly Cloudy SCT050 85.8 61.2 44% 86 29.93 0.0
12 16:35 SE 3 10.00 Fair CLR 85.6 62.6 46% 86 29.93 0.0
12 16:15 NW 3 10.00 Fair CLR 85.3 63.9 49% 87 29.93 0.0
12 15:55 Calm 10.00 Fair CLR 85.3 62.1 46% 86 29.93 0.0
12 15:35 Calm 10.00 Fair CLR 86 62.1 45% 87 29.93 0.0
12 15:15 Calm 10.00 Fair CLR 84.2 63.3 50% 85 29.94 0.0
12 14:55 Calm 10.00 Fair CLR 85.5 62.2 46% 86 29.94 0.0
12 14:35 Calm 10.00 Fair CLR 85.6 62.2 46% 86 29.95 0.0
12 14:15 W 3 10.00 Fair CLR 84 63.7 50% 85 29.96 0.0
12 13:55 Calm 10.00 Fair CLR 83.3 63.5 51% 85 29.96 0.0
12 13:35 SW 3 10.00 Fair CLR 83.3 63.9 52% 85 29.96 0.0
12 13:15 Calm 10.00 Fair CLR 83.1 63.1 51% 84 29.96 0.0
12 12:55 Calm 10.00 Fair CLR 83.8 63.9 83.8 67.3 51% 85 29.96 0.0
12 12:35 SE 5 10.00 Fair CLR 82.9 63.9 53% 84 29.97 0.0
12 12:15 SE 3 10.00 Fair CLR 82 62.6 52% 83 29.97 0.0
12 11:55 E 3 10.00 Fair CLR 82.2 62.8 52% 83 29.97 0.0
12 11:35 Calm 10.00 Fair CLR 81.7 62.1 51% 83 29.98 0.0
12 11:15 Calm 10.00 Fair CLR 81 62.8 54% 82 29.98 0.0
12 10:55 Calm 10.00 Fair CLR 79.9 63 56% 81 29.99 0.0
12 10:35 E 3 10.00 Fair CLR 79 63.5 59% 81 29.99 0.0
12 10:15 E 5 10.00 Fair CLR 79 62.6 57% 80 29.98 0.0
12 09:55 Calm 10.00 Fair CLR 78.1 62.4 59% 80 29.98 0.0
12 09:35 NE 3 10.00 Fair CLR 76.1 61 60% 78 29.98 0.0
12 09:15 Calm 10.00 Fair CLR 75.2 60.3 60% 77 29.99 0.0
12 08:55 Calm 10.00 Fair CLR 72.5 59.7 64% 29.99 0.0
12 08:35 N 3 10.00 Fair CLR 71.2 59.5 67% 29.98 0.0
12 08:15 N 3 10.00 Fair CLR 70 58.5 67% 29.98 0.0
12 07:55 N 3 10.00 Fair CLR 69.8 57.6 65% 29.97 0.0
12 07:35 Calm 10.00 Fair CLR 69.3 57.4 66% 29.97 0.0
12 07:15 Calm 10.00 Fair CLR 68.7 57.7 68% 29.96 0.0
12 06:55 N 3 10.00 Fair CLR 67.3 57.2 67.6 61.3 70% 29.96 0.0
12 06:35 N 3 10.00 Fair CLR 66.9 57.2 71% 29.96 0.0
12 06:15 N 3 10.00 Fair CLR 66 56.8 72% 29.96 0.0
12 05:55 N 3 10.00 Fair CLR 65.1 57.2 76% 29.95 0.0
12 05:35 N 3 10.00 Fair CLR 64.6 57.4 78% 29.94 0.0
12 05:15 N 3 10.00 Fair CLR 64.8 57.4 77% 29.94 0.0
12 04:55 N 3 10.00 Fair CLR 64.6 57.7 79% 29.93 0.0
12 04:35 Calm 10.00 Fair CLR 62.8 60.6 93% 29.94 0.0
12 04:15 Calm 10.00 Fair CLR 61.3 61.2 99% 29.93 0.0
12 03:55 Calm 10.00 Fair CLR 62.8 62.1 98% 29.93 0.0
12 03:35 Calm 10.00 Fair CLR 62.2 62.1 99% 29.93 0.0
12 03:15 Calm 10.00 Fair CLR 62.8 62.6 99% 29.93 0.0
12 02:55 Calm 10.00 Fair CLR 62.2 62.1 99% 29.93 0.0
12 02:35 Calm 10.00 Fair CLR 62.6 62.2 99% 29.93 0.0
12 02:15 Calm 10.00 Fair CLR 64 61.7 92% 29.92 0.0
12 01:55 Calm 10.00 Fair CLR 63.9 61.9 93% 29.93 0.0
12 01:35 Calm 10.00 Fair CLR 64.2 61.9 92% 29.93 0.0
12 01:15 Calm 10.00 Fair CLR 67.5 59.2 75% 29.93 0.0
12 00:55 Calm 10.00 Fair CLR 66.2 60.1 82.4 65.7 81% 29.93 0.0
12 00:35 N 3 10.00 Fair CLR 68.4 60.1 75% 29.93 0.0
12 00:15 Calm 10.00 Fair CLR 68.9 60.3 74% 29.94 0.0
11 23:55 N 3 10.00 Fair CLR 68.9 61 76% 29.94 0.0
11 23:35 Calm 10.00 Fair CLR 66 64.8 96% 29.93 0.0
11 23:15 Calm 10.00 Fair CLR 66.4 64.4 93% 29.93 0.0
11 22:35 Calm 10.00 Fair CLR 67.3 64.2 90% 29.93 0.0
11 22:15 Calm 10.00 Fair CLR 68 63.9 87% 29.93 0.0
11 21:55 Calm 10.00 Fair CLR 68.4 63.7 85% 29.93 0.0
11 21:35 Calm 10.00 Fair CLR 68.9 63.7 84% 29.92 0.0
11 21:15 Calm 10.00 Fair CLR 69.4 63.5 82% 29.92 0.0
11 20:35 Calm 10.00 Fair CLR 72 61.7 70% 29.91 0.0
11 20:15 N 3 10.00 Fair CLR 77 59.2 54% 79 29.91 0.0
11 19:55 Calm 10.00 Fair CLR 75.9 60.1 58% 78 29.9 0.0
11 19:35 NW 3 10.00 Fair CLR 79.7 57.7 47% 80 29.89 0.0
11 19:15 N 5 10.00 Fair CLR 81.3 55.6 41% 81 29.88 0.0
11 18:55 N 6 10.00 Fair CLR 82.6 55.8 84.9 81.1 40% 82 29.88 0.0
11 18:35 NW 3 10.00 Fair CLR 82.9 55.8 39% 82 29.88 0.0
11 18:15 NW 3 10.00 Fair CLR 82.4 55 39% 82 29.88 0.0
11 17:55 NW 6 10.00 Fair CLR 82.6 54.3 38% 82 29.88 0.0
11 17:35 N 8 10.00 Fair CLR 83.8 54.9 37% 83 29.87 0.0
11 17:15 NW 9 10.00 Fair CLR 84.4 55.8 38% 83 29.87 0.0
11 16:55 N 9 10.00 Fair CLR 84.9 56.5 38% 84 29.88 0.0
11 16:35 Calm 10.00 Fair CLR 84 56.3 39% 83 29.88 0.0
11 16:15 NW 8 10.00 Fair CLR 84.2 55.6 38% 83 29.88 0.0
11 15:55 N 7 10.00 Fair CLR 84.4 57.4 40% 84 29.88 0.0
11 15:35 Calm 10.00 Fair CLR 83.7 56.3 39% 83 29.88 0.0
11 15:15 N 3 10.00 Fair CLR 82.9 56.1 40% 82 29.89 0.0
11 14:55 NW 3 10.00 Fair CLR 83.3 56.7 40% 83 29.89 0.0
11 14:35 W 5 10.00 Fair CLR 83.3 57 41% 83 29.9 0.0
11 14:15 N 5 10.00 Fair CLR 82.4 57 42% 82 29.9 0.0
11 13:55 W 3 10.00 Fair CLR 82.4 56.5 41% 82 29.91 0.0
11 13:35 N 6 10.00 Fair CLR 82.2 55.4 40% 82 29.91 0.0
11 13:15 NE 3 10.00 Fair CLR 81.5 54.1 39% 81 29.91 0.0
11 12:55 NE 5 10.00 Fair CLR 81 54 82 66.9 39% 81 29.92 0.0
11 12:35 N 5 10.00 Fair CLR 81.1 53.4 38% 81 29.92 0.0
11 12:15 NW 5 10.00 Fair CLR 80.1 56.7 45% 80 29.93 0.0
11 11:35 N 7 10.00 Fair CLR 80.8 56.3 43% 81 29.93 0.0
11 11:15 NE 3 10.00 Fair CLR 80.2 58.6 48% 81 29.93 0.0
11 10:55 Calm 10.00 Fair CLR 78.6 55.9 46% 79 29.93 0.0
11 10:35 N 5 10.00 Fair CLR 78.1 57.9 50% 79 29.93 0.0
11 10:15 N 8 10.00 Fair CLR 77.7 58.3 51% 79 29.93 0.0
11 09:55 NE 3 10.00 Fair CLR 76.8 57.7 52% 79 29.93 0.0
11 09:30 N 5 10.00 Fair CLR 75.6 58.1 55% 78 29.93 0.0
11 09:15 Calm 10.00 Fair CLR 74.7 58.1 56% 29.93 0.0
11 08:55 N 3 10.00 Fair CLR 73.4 57.7 58% 29.93 0.0
11 08:35 N 5 10.00 Fair CLR 72.5 57.6 60% 29.93 0.0
11 08:15 N 5 10.00 Fair CLR 71.1 57 61% 29.93 0.0
11 07:55 N 5 10.00 Fair CLR 69.8 57 64% 29.93 0.0
11 07:35 N 5 10.00 Fair CLR 68.9 55.9 64% 29.94 0.0
11 07:15 NE 3 10.00 Fair CLR 67.8 55.6 65% 29.94 0.0
11 06:55 N 6 10.00 Fair CLR 66.7 55.6 66.7 60.8 68% 29.93 0.0
11 06:35 N 3 10.00 Fair CLR 65.1 56.3 73% 29.92 0.0
11 06:15 Calm 10.00 Fair CLR 63.7 57.2 80% 29.92 0.0
11 05:55 Calm 10.00 Fair CLR 63.5 57.4 81% 29.92 0.0
11 05:35 N 3 10.00 Fair CLR 63.5 57.2 80% 29.92 0.0
11 05:15 Calm 10.00 Fair CLR 63.5 57.4 81% 29.91 0.0
11 04:55 N 3 10.00 Fair CLR 62.6 58.1 85% 29.9 0.0
11 04:35 Calm 10.00 Fair CLR 62.1 59.2 90% 29.89 0.0
11 04:15 Calm 10.00 Fair CLR 65.1 56.7 74% 29.89 0.0
11 03:55 N 3 10.00 Fair CLR 64.6 58.1 80% 29.88 0.0
11 03:35 N 3 10.00 Fair CLR 63.7 58.6 84% 29.88 0.0
11 03:15 Calm 10.00 Fair CLR 62.1 61.9 99% 29.88 0.0
11 02:55 Calm 10.00 Fair CLR 61.7 61.3 99% 29.88 0.0
11 02:35 Calm 10.00 Fair CLR 62.6 62.2 99% 29.88 0.0
11 02:15 Calm 10.00 Fair CLR 63.1 63 99% 29.88 0.0
11 01:55 Calm 10.00 Fair CLR 63.1 63 99% 29.88 0.0
11 01:35 Calm 10.00 Fair CLR 63.7 63.5 99% 29.89 0.0
11 01:15 Calm 10.00 Fair CLR 63.5 63.1 99% 29.89 0.0
11 00:55 Calm 10.00 Fair CLR 64.6 63.5 81.7 64.4 96% 29.89 0.0
11 00:35 Calm 10.00 Fair CLR 64.4 63.5 97% 29.88 0.0
11 00:15 Calm 10.00 Fair CLR 66.2 61.7 86% 29.88 0.0
10 23:35 Calm 10.00 Fair CLR 66.7 61 82% 29.88 0.0
10 23:15 Calm 10.00 Fair CLR 67.6 60.6 78% 29.88 0.0
10 22:55 Calm 10.00 Fair CLR 69.3 59.7 72% 29.88 0.0
10 22:35 Calm 10.00 Fair CLR 72 58.3 62% 29.88 0.0
10 22:15 Calm 10.00 Fair CLR 72.5 59 63% 29.88 0.0
10 21:55 N 3 10.00 Fair CLR 73.4 58.5 60% 29.87 0.0
10 21:35 N 3 10.00 Fair CLR 73.9 59 60% 29.86 0.0
10 21:15 N 3 10.00 Fair CLR 74.5 59.4 59% 29.85 0.0
10 20:55 N 5 10.00 Fair CLR 75.6 59.5 58% 78 29.84 0.0
10 20:35 N 5 10.00 Fair CLR 77 59.2 54% 79 29.83 0.0
10 20:15 N 5 10.00 Fair CLR 78.3 57.9 50% 79 29.84 0.0
10 19:55 N 3 10.00 Fair CLR 78.6 57.9 49% 80 29.84 0.0
10 19:35 Calm 10.00 Fair CLR 79.9 57.4 46% 80 29.83 0.0
10 19:15 NE 5 10.00 Fair CLR 81 56.7 43% 81 29.83 0.0
10 18:55 N 7 10.00 Fair CLR 81.9 57 85.8 81.9 43% 82 29.83 0.0
10 18:35 N 8 10.00 Fair CLR 82.4 56.5 41% 82 29.82 0.0
10 18:15 N 6 10.00 Fair CLR 83.3 55.2 38% 82 29.82 0.0
10 17:55 N 9 10.00 Fair CLR 83.7 54 36% 82 29.81 0.0
10 17:35 N 9 10.00 Fair CLR 84 52 33% 82 29.81 0.0
10 17:15 N 10 10.00 Fair CLR 84.4 54 35% 83 29.81 0.0
10 16:55 N 9 10.00 Fair CLR 84.7 53.6 34% 83 29.81 0.0
10 16:35 N 10 10.00 Fair CLR 85.1 52.3 32% 83 29.81 0.0
10 16:15 N 9 10.00 Fair CLR 85.1 50 30% 83 29.81 0.0
10 15:55 W 8 10.00 Fair CLR 85.1 52.2 32% 83 29.81 0.0
10 15:15 NW 6 10.00 Fair CLR 84.9 52.2 32% 83 29.83 0.0
10 14:55 N 8 10.00 Fair CLR 84.9 53.6 34% 83 29.84 0.0
10 14:35 N 7 10.00 Fair CLR 85.3 54.9 35% 84 29.85 0.0
10 14:15 N 8 10.00 Fair CLR 84.4 62.6 48% 85 29.85 0.0
10 13:55 N 8 10.00 Partly Cloudy SCT039 83.7 65.5 54% 86 29.85 0.0
10 13:35 NW 7 10.00 Partly Cloudy SCT039 84.7 67.6 57% 88 29.85 0.0
10 13:15 Calm 10.00 Partly Cloudy SCT033 SCT041 84 67.1 57% 87 29.86 0.0
10 12:55 N 5 10.00 Partly Cloudy SCT033 SCT041 83.3 69.3 84 73.9 63% 87 29.86 0.0
10 12:35 NE 6 10.00 Partly Cloudy SCT033 SCT039 82.8 69.1 63% 86 29.87 0.0
10 12:15 N 7 10.00 Partly Cloudy SCT033 SCT039 83.1 70.2 65% 87 29.87 0.0
10 11:55 Calm 10.00 Partly Cloudy SCT031 SCT039 82.8 69.3 64% 86 29.87 0.0
10 11:30 N 8 10.00 Mostly Cloudy BKN028 BKN037 81.3 68.9 66% 84 29.87 0.0
10 11:15 N 7 10.00 Mostly Cloudy BKN026 BKN035 80.6 70.2 71% 84 29.87 0.0
10 10:55 N 5 10.00 Partly Cloudy SCT024 80.4 70.5 72% 84 29.87 0.0
10 10:35 N 3 10.00 Partly Cloudy SCT022 79.3 70.5 75% 82 29.87 0.0
10 10:15 N 7 10.00 Fair CLR 78.3 71.1 79% 81 29.87 0.0
10 09:55 N 6 10.00 Fair CLR 79 71.8 79% 82 29.87 0.0
10 09:35 N 7 10.00 Fair CLR 77.7 71.4 81% 80 29.87 0.0
10 09:15 N 5 10.00 Fair CLR 77.2 73 87% 79 29.87 0.0
10 08:55 N 6 10.00 Fair CLR 75.6 72.9 91% 75 29.87 0.0
10 08:35 N 6 10.00 Fair CLR 75.2 73.4 94% 74 29.87 0.0
10 07:55 N 3 10.00 Fair CLR 74.5 72.7 94% 29.86 0.0
10 07:35 N 6 10.00 Fair CLR 74.3 73 96% 29.86 0.0
10 07:15 N 5 10.00 Fair CLR 74.1 73.6 98% 29.86 0.0
10 06:55 N 5 10.00 Fair CLR 74.1 73.6 77.9 72.9 98% 29.85 0.0
10 06:35 N 6 10.00 Fair CLR 73.6 73.4 99% 29.85 0.0
10 06:15 N 5 10.00 Fair CLR 73.6 73.4 99% 29.85 0.0
10 05:55 N 5 10.00 Partly Cloudy SCT070 74.1 73.6 98% 29.84 0.0
10 05:35 N 3 10.00 Partly Cloudy SCT070 74.3 73.8 98% 29.83 0.0
10 05:15 N 6 10.00 Partly Cloudy SCT070 74.5 74.1 99% 29.83 0.0
10 04:55 Calm 10.00 Partly Cloudy SCT080 74.8 74.1 98% 29.83 0.0
10 04:35 N 3 10.00 Partly Cloudy SCT080 75.2 73.6 95% 74 29.83 0.0
10 04:15 N 5 10.00 Fair CLR 75 74.3 98% 73 29.83 0.0
10 03:55 Calm 10.00 Fair CLR 75.4 74.5 97% 74 29.82 0.0
10 03:35 Calm 10.00 Fair CLR 75.9 74.5 95% 75 29.82 0.0
10 03:15 N 3 10.00 Fair CLR 76.3 74.5 94% 76 29.82 0.0
10 02:55 N 6 10.00 Partly Cloudy SCT050 SCT055 SCT110 75 74.7 99% 72 29.83 0.0
10 02:35 Calm 10.00 Mostly Cloudy BKN050 BKN060 73.9 73.8 99% 29.83 0.0
10 02:15 Calm 10.00 Mostly Cloudy SCT043 BKN050 BKN055 74.7 74.3 99% 29.83 0.0
10 01:35 Calm 10.00 Fair CLR 73.9 73.6 99% 29.83 0.0
10 01:15 Calm 10.00 Fair CLR 75.2 74.8 99% 73 29.83 0.0
10 00:55 Calm 10.00 Fair CLR 77.7 74.1 86.5 75.2 89% 80 29.84 0.0
10 00:35 N 3 10.00 Fair CLR 76.1 75.6 98% 75 29.83 0.0
10 00:15 Calm 10.00 Fair CLR 75.6 75.2 99% 74 29.83 0.0
09 23:55 Calm 10.00 Fair CLR 75.4 75 99% 73 29.83 0.0
09 23:35 Calm 10.00 Fair CLR 76.8 76.3 98% 77 29.83 0.0
09 23:15 Calm 10.00 Fair CLR 76.5 76.1 99% 76 29.83 0.0
09 22:55 Calm 10.00 Fair CLR 76.3 75.9 99% 76 29.83 0.0
09 22:35 Calm 10.00 Fair CLR 77.9 77.5 99% 80 29.84 0.0
09 22:15 Calm 10.00 Fair CLR 78.3 77.9 99% 81 29.86 0.0
Date Time (cdt) Wind (mph) Vis. (mi.) Weather Sky Cond. Air Dwpt Max. Min. Relative Humidity Wind Chill (°F) Heat Index (°F) altimeter (in) sea level (mb) 1 hr 3 hr 6 hr
6 hour
Temperature (ºF) Pressure Precipitation (in)